Flag for U.S.A. Weather past 2 weeks in Lexington, Virginia, U.S.A.

Now
31 °F

Low clouds.


Feels Like: 24 °F
Forecast: 36 / 50 °F
Wind: 7 mph from Northwest

Location: Hot Springs / Ingalls

Current Time: Mar 27, 2015 at 11:42:36 AM

Latest Report: Mar 27, 2015 at 11:15 AM


Visibility: 10 mi

Pressure: 29.72 "Hg

Humidity: 100%

Dew point: 31 °F

Location of LexingtonLocation

Historic Weather in Lexington — Graph

°F

Lexington temperature yesterday

Maximum temperature yesterday: 67 °F (at 2:15 PM)
Minimum temperature yesterday: 41 °F (at 11:55 PM)
Average temperature yesterday: 55 °F

Past Weeks' High & Low Weather Summary

 TemperatureHumidityPressure
High67 °F (Mar 26, 2:15 PM)100% (Mar 13, 8:15 PM)30.48 "Hg (Mar 13, 8:15 PM)
Low23 °F (Mar 18, 7:55 AM)11% (Mar 18, 5:55 PM)29.69 "Hg (Mar 27, 4:35 AM)
Average43 °F64%30.06 "Hg
* Reported Mar 12 10:15 AM — Mar 27 10:15 AM, Lexington, Weather by CustomWeather, © 2015

Note: Actual official high and low records may vary slightly from our data, if they occured in-between our weather recording intervals... More about our weather records

Advertising

Lexington weather history for previous 24 hours

 ConditionsComfort  
Time TempWeatherWind HumidityBarometerVisibility
10:15 AM
Fri, Mar 27
31 °FIce fog.10 mph100%29.73 "Hg1 mi
9:55 AM31 °FIce fog.10 mph100%29.73 "Hg0 mi
9:35 AM31 °FIce fog.13 mph100%29.72 "Hg0 mi
9:15 AM31 °FIce fog.12 mph100%29.69 "Hg0 mi
8:55 AM32 °FIce fog.9 mph100%29.69 "Hg0 mi
8:15 AM32 °FLight snow. Low clouds.12 mph100%29.71 "Hg0 mi
7:55 AM32 °FLight snow. Low clouds.10 mph100%29.69 "Hg0 mi
7:15 AM32 °FLight snow. Low clouds.12 mph100%29.71 "Hg0 mi
6:55 AM32 °FSnow. Low clouds.13 mph100%29.71 "Hg0 mi
6:35 AM33 °FLight snow. Low clouds.12 mph100%29.69 "Hg1 mi
6:15 AM33 °FFog.9 mph100%29.71 "Hg0 mi
5:55 AM33 °FFog.9 mph100%29.69 "Hg1 mi
5:35 AM33 °FFog.12 mph100%29.69 "Hg0 mi
5:15 AM33 °FFog.12 mph100%29.69 "Hg0 mi
4:55 AM33 °FLight snow. Low clouds.12 mph100%29.69 "Hg0 mi
4:35 AM33 °FFog.10 mph100%29.69 "Hg0 mi
4:15 AM33 °FFog.10 mph100%29.71 "Hg0 mi
3:55 AM33 °FLight snow. Low clouds.10 mph100%29.72 "Hg0 mi
3:35 AM33 °FLight snow. Low clouds.13 mph100%29.73 "Hg0 mi
3:15 AM33 °FLight snow. Low clouds.12 mph100%29.73 "Hg1 mi
2:55 AM34 °FLight snow. Low clouds.12 mph100%29.74 "Hg0 mi
2:15 AM36 °FRain. Low clouds.12 mph100%29.73 "Hg1 mi
1:55 AM37 °FFog.14 mph100%29.75 "Hg1 mi
1:35 AM37 °FLight rain. Low clouds.15 mph100%29.75 "Hg0 mi
1:15 AM38 °FDrizzle. Low clouds.17 mph100%29.73 "Hg0 mi
12:55 AM38 °FLight rain. Low clouds.18 mph100%29.73 "Hg0 mi
12:35 AM39 °FFog.14 mph100%29.73 "Hg1 mi
12:15 AM40 °FFog.13 mph100%29.74 "Hg1 mi
11:55 PM
Thu, Mar 26
41 °FFog.13 mph100%29.74 "Hg4 mi
11:15 PM42 °FLow clouds.15 mph100%29.73 "Hg10 mi
10:55 PM44 °FFog.20 mph100%29.73 "Hg1 mi
10:15 PM47 °FFog.12 mph100%29.73 "Hg0 mi
9:55 PM47 °FFog.14 mph100%29.74 "Hg0 mi
9:35 PM47 °FLight snow. Low clouds.10 mph100%29.74 "Hg0 mi
9:15 PM49 °FLight rain. Low clouds.15 mph100%29.72 "Hg0 mi
8:55 PM49 °FLight rain. Low clouds.13 mph100%29.73 "Hg0 mi
8:15 PM50 °FDrizzle. Low clouds.10 mph100%29.72 "Hg0 mi
7:55 PM50 °FDrizzle. Low clouds.13 mph100%29.72 "Hg0 mi
7:35 PM50 °FLight rain. Low clouds.13 mph100%29.72 "Hg0 mi
7:15 PM50 °FLight rain. Low clouds.9 mph100%29.72 "Hg0 mi
6:55 PM51 °FThunderstorms. Low clouds.17 mph100%29.74 "Hg0 mi
6:15 PM59 °FThundershowers. Broken clouds.10 mph67%29.72 "Hg10 mi
5:55 PM59 °FScattered clouds.17 mph67%29.73 "Hg10 mi
5:15 PM59 °FCloudy.17 mph67%29.72 "Hg10 mi
4:55 PM60 °FCloudy.16 mph65%29.72 "Hg10 mi
4:35 PM60 °FCloudy.17 mph65%29.72 "Hg10 mi
4:15 PM60 °FCloudy.16 mph64%29.74 "Hg10 mi
3:55 PM62 °FMostly cloudy.20 mph55%29.74 "Hg10 mi
3:35 PM65 °FMostly cloudy.17 mph48%29.75 "Hg10 mi
3:15 PM65 °FMostly cloudy.16 mph47%29.75 "Hg10 mi
2:55 PM65 °FMostly cloudy.21 mph46%29.76 "Hg10 mi
2:15 PM67 °FBroken clouds.16 mph44%29.77 "Hg10 mi
1:55 PM65 °FMostly cloudy.15 mph49%29.78 "Hg10 mi
1:35 PM65 °FBroken clouds.20 mph48%29.79 "Hg10 mi
1:15 PM64 °FMostly cloudy.13 mph50%29.80 "Hg10 mi
12:55 PM64 °FOvercast.14 mph51%29.82 "Hg10 mi
12:35 PM64 °FMostly cloudy.18 mph51%29.83 "Hg10 mi
12:15 PM63 °FPartly sunny.18 mph53%29.84 "Hg10 mi
11:55 AM63 °FScattered clouds.18 mph53%29.85 "Hg10 mi
11:35 AM61 °FBroken clouds.16 mph62%29.86 "Hg10 mi
11:15 AM61 °FPartly sunny.18 mph63%29.88 "Hg10 mi
Weather by CustomWeather, © 2015

See weather overviewHow to use our weather pages